{"data":{"norad_id":66960,"intl_designator":"2025-288B","name":"STARLINK-35879","alt_names":[],"object_type":"PAYLOAD","status":"ACTIVE","operator":null,"country":"US","launch_date":"2025-12-08","launch_site_code":"AFETR","launch_vehicle":null,"mission":null,"orbit_class":"UNKNOWN","rcs_meters":null,"size_class":null,"mass_kg":null,"dimensions":null,"purposes":["comms"],"wikipedia_slug":null,"has_3d_model":false,"image_url":null,"decayed_at":null,"tle_current":{"epoch":"2026-05-25T04:09:01.031904Z","epoch_age_seconds":60068,"freshness":"FRESH","line1":"1 66960U 25288B   26145.17292861  .00016443  00000+0  60563-3 0  9996","line2":"2 66960  43.0004 311.5975 0000670 294.0864  65.9918 15.27584244 26982","mean_motion":15.27584244,"eccentricity":6.7e-5,"inclination_deg":43.0004,"raan_deg":311.5975,"arg_perigee_deg":294.0864,"mean_anomaly_deg":65.9918,"bstar":0.00060563,"rev_number":2698,"period_min":94.266486817731,"perigee_km":482.57668938931,"apogee_km":483.4960866233,"semimajor_km":6861.1733880063,"source":"CELESTRAK","updated_at":"2026-05-25T13:38:21.392417Z"}}}